Location: Hilton Head Island
(32.2163°N, 80.7526°W)
Time: 09:56:29
(UTC-05:00)

Explorer 7 - Pass Details

Date: 20 February 2026
Orbit: 430 x 542 km, 50.2° (Epoch: 5 March)

Event Time Altitude Azimuth Distance (km) Brightness Sun altitude
Rises 20:15:08 0° 321° (NW) 2,550 10.8 -26.4°
Reaches altitude 10° 20:17:25 10° 331° (NNW) 1,689 9.7 -26.9°
Enters shadow 20:18:21 16° 338° (NNW) 1,370 9.1 -27.1°
